This demonstration page uses our WeatherBlox Daily Observations layout. Learn more.

Left ArrowRight Arrow

Hourly Observations for January 11, 2015

Temp ( °F °C ) Dew Point ( °F °C ) Humidity (%) Winds ( mph kmh ) Pressure ( in mb ) Visibility ( mi km ) Precip ( " mm )
12:51 am 00:51 Cloudy 43 6.1 35 1.7 74 74 SSE 3 6 30.08 1019 10 16 N/A
1:51 am 01:51 Partly Cloudy 41 5 35 1.7 79 79 ESE 5 7 30.09 1019 10 16 N/A
2:51 am 02:51 Cloudy 43 6.1 35 1.7 74 74 SSE 8 13 30.08 1019 10 16 N/A
3:51 am 03:51 Mostly Cloudy 42 5.6 35 1.7 76 76 ESE 5 7 30.09 1019 10 16 N/A
4:51 am 04:51 Cloudy 42 5.6 35 1.7 76 76 SSE 5 7 30.08 1019 10 16 N/A
5:51 am 05:51 Cloudy 42 5.6 35 1.7 76 76 E 5 7 30.09 1019 10 16 N/A
6:51 am 06:51 Cloudy 42 5.6 35 1.7 76 76 SE 7 11 30.11 1020 10 16 N/A
7:51 am 07:51 Cloudy 44 6.7 36 2.2 73 73 E 3 6 30.11 1020 10 16 N/A
8:51 am 08:51 Cloudy 43 6.1 36 2.2 76 76 SSE 7 11 30.14 1021 10 16 N/A
9:51 am 09:51 Cloudy 45 7.2 36 2.2 71 71 SSE 6 9 30.16 1021 10 16 N/A
10:51 am 10:51 Cloudy 51 10.6 37 2.8 59 59 SSE 7 11 30.14 1021 10 16 N/A
11:51 am 11:51 Mostly Cloudy 55 12.8 36 2.2 49 49 VRB 5 7 30.11 1020 10 16 N/A
12:51 pm 12:51 Mostly Sunny 59 15 36 2.2 42 42 S 3 6 30.06 1018 10 16 N/A
1:51 pm 13:51 Sunny 60 15.6 37 2.8 42 42 N N/A 30.04 1017 10 16 N/A
2:51 pm 14:51 Mostly Sunny 60 15.6 38 3.3 44 44 W 3 6 30.03 1017 10 16 N/A
3:51 pm 15:51 Cloudy 61 16.1 38 3.3 43 43 NW 6 9 30.02 1017 10 16 N/A
4:51 pm 16:51 Partly Cloudy 59 15 38 3.3 46 46 WNW 6 9 30.04 1017 10 16 N/A
5:51 pm 17:51 Mostly Cloudy 56 13.3 38 3.3 51 51 NW 5 7 30.05 1018 10 16 N/A
6:51 pm 18:51 Partly Cloudy 53 11.7 38 3.3 57 57 N 6 9 30.06 1018 10 16 N/A
7:51 pm 19:51 Mostly Clear 50 10 38 3.3 63 63 undefined N/A 30.08 1019 10 16 N/A
8:51 pm 20:51 Mostly Clear 48 8.9 38 3.3 68 68 ESE 3 6 30.08 1019 10 16 N/A
9:51 pm 21:51 Cloudy 49 9.4 38 3.3 66 66 E 5 7 30.09 1019 10 16 N/A
10:51 pm 22:51 Cloudy 49 9.4 40 4.4 71 71 N N/A 30.08 1019 10 16 N/A
11:51 pm 23:51 Cloudy with Light Rain 49 9.4 42 5.6 77 77 NNW 7 11 30.08 1019 10 16 N/A

Powered by AerisWeather